カタログに戻る

SNUGLITE 2

SNUGLITE-II

運用中アマチュア無線SSO
NORAD 52899·PAYLOAD·🇰🇷 South Korea

打ち上げ Jun 21, 2022 から Naro Space Center

Loading…

次のパス (今後24時間)

TLE

最新Source: AMSAT

元期: Sep 14, 2026, 03:06 UTC

1 52899U 22065F   26257.12967346  .00000711  00000-0  14331-3 0  9992
2 52899  98.2334  41.8751 0008691 103.2455 256.9717 14.64484178224017

AllMySatでSNUGLITE 2をリアルタイム追跡

Download on the App Store